Location: Cheyres
(46.8153°N, 6.7877°E)
Time: 01:21:50
(UTC+00:00)

Cosmos 2278 Rocket - Pass Details

Date: 11 May 2021
Orbit: 841 x 845 km, 71.0° (Epoch: 23 June)

Event Time Altitude Azimuth Distance (km) Brightness Sun altitude
Rises 22:01:19 0° 234° (SW) 3,388 5.2 -22.1°
Reaches altitude 10° 22:03:59 10° 244° (WSW) 2,457 4.6 -22.3°
Maximum altitude 22:09:05 34° 308° (NW) 1,363 3.7 -22.6°
Drops below altitude 10° 22:14:12 10° 13° (NNE) 2,469 5.4 -22.9°
Sets 22:16:54 0° 23° (NNE) 3,408 6.1 -23.0°
